Tracking 29892 objects as of 21-Nov-2024
HD Live streaming from Space Station
objects crossing your sky now

CZ-6A DEB

Track CZ-6A DEB now!
10-day predictions


NORAD ID: 54467
Int'l Code: 2022-151GT
Perigee: 688.2 km
Apogee: 837.2 km
Inclination: 98.7 °
Period: 99.9 minutes
Semi major axis: 7133 km
RCS: Unknown
Launch date: November 11, 2022
Source: People's Republic of China (PRC)
Launch site: Taiyaun Space Center, China (TSC)

Note: This is SATELLITE DEBRIS
Your satellite tracking list
Your tracking list is empty




NASA's NSSDC Master Catalog

Two Line Element Set (TLE):
1 54467U 22151GT  24325.51083738  .00007163  00000-0  21059-2 0  9994
2 54467  98.6561 344.7014 0104442 282.4144  76.5372 14.40893934105861
Source of the keplerian elements: AFSPC